Fort Dodge Regional Airport
KFOD : now visible

Airfield :











YOU CAN JOIN US ON...

 
LOGIN :

Register | Disclaimer

   EN    FR    IT 

 









Legend :    VFR   Marginal VFR   IFR   Intensive IFR   Very Intensive IFR
Visi :
Ceiling :
>= 8 km
>= 3000ft
5 to 8 km
1000 to 3000 ft
1500m to 5 km
500 to 1000 ft
800 to 1500m
200 to 500 ft
< 800m
< 200 ft
Symbols :   Thunderstorms  Fog  Heavy snow  Heavy precipitations  Wind > 20 kt






- Airport Elevation : 1156 ft
- IATA code : FOD


KFOD - Fort Dodge Regional

CURRENT METAR :
  • 192256Z AUTO 36003KT 10SM OVC031 07/02 A2991 RMK AO2 SLP164 T00720022

EXPIRED METARs :
  • 192156Z AUTO 33006KT 10SM BKN033 09/03 A2990 RMK AO2 SLP161 T00890028
  • 192056Z AUTO 32006KT 10SM FEW029 09/03 A2988 RMK AO2 SLP152 T00940028 53005

TAF KFOD
Valid from the 20 at 00:00 until the 21 at 00:00 UTC


192321Z 2000/2024 VRB03KT P6SM BKN035
FM200900 12007KT P6SM BKN150
FM201500 13013G21KT P6SM BKN150
FM201900 14015G27KT P6SM BKN150



MET'MAP, your aeronautical weather chart ! - Copyright ORBIFLY December 2007 - Disclaimer

ORBIFLY MET'MAP TEAM :

Programming & Development : Alexandra Zaïnal
Concept & Development : Baudouin d'Aumeries
Co-Development & Prog : Marc-Olivier Méhu
Technical & hardware support : Manuel Goepfert

Contact : metmap@orbifly.com




SOURCES & CREDITS :

   NOAA       Earth
Advisory